Weather History for Blakely, GA

Change the Weather History Date:

Tuesday, October 8, 2013

  Actual Average (KDHN) Record (KDHN)
Temperature  
Mean Temperature 70 °F 70 °F  
Max Temperature 82 °F 82 °F 92 °F (1941)
Min Temperature 59 °F 58 °F 40 °F (1964)
Degree Days  
Heating Degree Days 0 1  
Month to date heating degree days 3  
Since 1 July heating degree days 5  
Cooling Degree Days 6 6  
Month to date cooling degree days 53  
Year to date cooling degree days 2281  
Growing Degree Days 20 (Base 50)    
Moisture  
Dew Point 63 °F    
Average Humidity 83    
Maximum Humidity 100    
Minimum Humidity 66    
Precipitation  
Precipitation 0.00 in 0.11 in 1.53 in (1962)
Month to date precipitation 0.87  
Year to date precipitation 42.85  
Sea Level Pressure  
Sea Level Pressure 29.97 in    
Wind  
Wind Speed 3 mph (NE)    
Max Wind Speed 13 mph    
Max Gust Speed 18 mph    
Visibility 10 miles    
Events      
T = Trace of Precipitation, MM = Missing Value Source: NWS Daily Summary

Daily Weather History Graph

Daily Weather History Graph

Search for Another Location

Airport:

Trip Planner

Search our weather history database for the weather conditions in past years. The results will help you decide how hot, cold, wet, or windy it might be!

Date:

Astronomy

Oct. 08, 2013 Rise Set
Actual Time 7:37 AM EDT 7:15 PM EDT
Civil Twilight 7:13 AM EDT 7:39 PM EDT
Nautical Twilight 6:45 AM EDT 8:08 PM EDT
Astronomical Twilight 6:17 AM EDT 8:36 PM EDT
Moon 11:17 AM EDT (10/8) 10:05 PM EDT (10/8)
Length of Visible Light 12h 26m
Length of Day
11h 37m
Waxing Crescent, 16% of the Moon is Illuminated
Oct 8
Waxing Crescent
Oct 11
First Quarter
Oct 18
Full
Oct 26
Last Quarter
Nov 3
New

Hourly Weather History & Observations

Time (EDT) Temp. Heat Index Dew Point Humidity Pressure Visibility Wind Dir Wind Speed Gust Speed Precip Events Conditions
12:15 AM 64.4 °F - 60.8 °F 88% 29.94 in 10.0 mi Calm Calm - N/A   Clear
12:35 AM 64.4 °F - 59.0 °F 83% 29.93 in 10.0 mi Calm Calm - N/A   Clear
12:55 AM 62.6 °F - 59.0 °F 88% 29.93 in 10.0 mi Calm Calm - N/A   Clear
1:15 AM 62.6 °F - 59.0 °F 88% 29.93 in 10.0 mi Calm Calm - N/A   Clear
1:35 AM 62.6 °F - 59.0 °F 88% 29.93 in 10.0 mi Calm Calm - N/A   Scattered Clouds
1:55 AM 62.6 °F - 59.0 °F 88% 29.92 in 10.0 mi Calm Calm - N/A   Scattered Clouds
2:15 AM 62.6 °F - 57.2 °F 82% 29.92 in 10.0 mi Calm Calm - N/A   Clear
2:35 AM 62.6 °F - 57.2 °F 82% 29.92 in 10.0 mi North 3.5 mph - N/A   Clear
2:55 AM 60.8 °F - 55.4 °F 82% 29.92 in 10.0 mi Calm Calm - N/A   Clear
3:15 AM 60.8 °F - 57.2 °F 88% 29.92 in 10.0 mi Calm Calm - N/A   Clear
3:35 AM 60.8 °F - 57.2 °F 88% 29.92 in 10.0 mi Calm Calm - N/A   Clear
3:55 AM 60.8 °F - 55.4 °F 82% 29.92 in 10.0 mi Calm Calm - N/A   Clear
4:15 AM 60.8 °F - 55.4 °F 82% 29.92 in 10.0 mi Calm Calm - N/A   Clear
4:35 AM 60.8 °F - 55.4 °F 82% 29.92 in 10.0 mi Calm Calm - N/A   Clear
4:55 AM 59.0 °F - 57.2 °F 94% 29.92 in 10.0 mi North 3.5 mph - N/A   Clear
5:15 AM 59.0 °F - 57.2 °F 94% 29.92 in 10.0 mi Calm Calm - N/A   Clear
5:35 AM 59.0 °F - 57.2 °F 94% 29.93 in 10.0 mi North 4.6 mph - N/A   Clear
5:55 AM 60.8 °F - 57.2 °F 88% 29.93 in 10.0 mi Calm Calm - N/A   Mostly Cloudy
6:15 AM 60.8 °F - 57.2 °F 88% 29.93 in 10.0 mi Calm Calm - N/A   Overcast
6:35 AM 60.8 °F - 59.0 °F 94% 29.94 in 10.0 mi Calm Calm - N/A   Overcast
6:55 AM 60.8 °F - 57.2 °F 88% 29.93 in 10.0 mi Calm Calm - N/A   Overcast
7:15 AM 60.8 °F - 57.2 °F 88% 29.94 in 10.0 mi North 3.5 mph - N/A   Overcast
7:35 AM 60.8 °F - 57.2 °F 88% 29.94 in 10.0 mi North 4.6 mph - N/A   Overcast
7:55 AM 60.8 °F - 57.2 °F 88% 29.95 in 10.0 mi NE 3.5 mph - N/A   Mostly Cloudy
8:15 AM 60.8 °F - 57.2 °F 88% 29.96 in 10.0 mi NNE 3.5 mph - N/A   Scattered Clouds
8:35 AM 60.8 °F - 59.0 °F 94% 29.96 in 10.0 mi NNE 3.5 mph - N/A   Mostly Cloudy
8:55 AM 62.6 °F - 60.8 °F 94% 29.97 in 10.0 mi NE 3.5 mph - N/A   Overcast
9:15 AM 62.6 °F - 60.8 °F 94% 29.98 in 10.0 mi NNE 4.6 mph - N/A   Overcast
9:35 AM 62.6 °F - 62.6 °F 100% 29.99 in 10.0 mi NNE 4.6 mph - N/A   Overcast
9:55 AM 64.4 °F - 62.6 °F 94% 29.99 in 10.0 mi NE 3.5 mph - N/A   Overcast
10:15 AM 64.4 °F - 62.6 °F 94% 30.00 in 10.0 mi NNE 3.5 mph - N/A   Overcast
10:35 AM 68.0 °F - 64.4 °F 88% 30.00 in 10.0 mi NNE 3.5 mph - N/A   Overcast
10:55 AM 68.0 °F - 64.4 °F 88% 30.00 in 10.0 mi NE 5.8 mph - N/A   Overcast
11:15 AM 69.8 °F - 64.4 °F 83% 30.00 in 10.0 mi ENE 4.6 mph - N/A   Overcast
11:35 AM 71.6 °F - 66.2 °F 83% 30.00 in 10.0 mi ENE 6.9 mph - N/A   Overcast
11:55 AM 73.4 °F - 68.0 °F 83% 30.00 in 10.0 mi East 4.6 mph - N/A   Overcast
12:15 PM 73.4 °F - 68.0 °F 83% 30.00 in 5.0 mi East 4.6 mph - N/A   Haze
12:35 PM 75.2 °F - 68.0 °F 78% 29.99 in 10.0 mi ENE 4.6 mph - N/A   Overcast
12:55 PM 77.0 °F - 69.8 °F 78% 29.99 in 10.0 mi ENE 6.9 mph - N/A   Mostly Cloudy
1:15 PM 80.6 °F 83.9 °F 69.8 °F 70% 29.98 in 10.0 mi NNE 8.1 mph - N/A   Scattered Clouds
1:35 PM 80.6 °F 83.9 °F 69.8 °F 70% 29.97 in 10.0 mi East 5.8 mph - N/A   Scattered Clouds
1:55 PM 80.6 °F 83.9 °F 69.8 °F 70% 29.97 in 10.0 mi East 6.9 mph - N/A   Scattered Clouds
2:15 PM 80.6 °F 83.9 °F 69.8 °F 70% 29.96 in 10.0 mi East 3.5 mph - N/A   Scattered Clouds
2:35 PM 82.4 °F 86.3 °F 69.8 °F 66% 29.95 in 10.0 mi ESE 4.6 mph - N/A   Scattered Clouds
2:55 PM 80.6 °F 83.9 °F 69.8 °F 70% 29.95 in 1.8 mi Calm Calm - N/A   Haze
3:15 PM 80.6 °F 83.9 °F 69.8 °F 70% 29.95 in 10.0 mi ENE 4.6 mph - N/A   Overcast
3:35 PM 78.8 °F - 69.8 °F 74% 29.95 in 10.0 mi ENE 3.5 mph - N/A   Mostly Cloudy
3:55 PM 80.6 °F 83.9 °F 69.8 °F 70% 29.96 in 10.0 mi East 6.9 mph - N/A   Scattered Clouds
4:15 PM 80.6 °F 83.9 °F 69.8 °F 70% 29.96 in 10.0 mi NE 6.9 mph 17.3 mph N/A   Mostly Cloudy
4:35 PM 80.6 °F 83.9 °F 69.8 °F 70% 29.96 in 10.0 mi ENE 8.1 mph - N/A   Scattered Clouds
4:55 PM 80.6 °F 83.9 °F 69.8 °F 70% 29.96 in 10.0 mi ENE 8.1 mph - N/A   Scattered Clouds
5:15 PM 78.8 °F - 68.0 °F 69% 29.97 in 10.0 mi East 12.7 mph - N/A   Scattered Clouds
5:35 PM 78.8 °F - 68.0 °F 69% 29.97 in 10.0 mi NE 5.8 mph 16.1 mph N/A   Scattered Clouds
5:55 PM 78.8 °F - 68.0 °F 69% 29.97 in 10.0 mi ENE 10.4 mph - N/A   Clear
6:15 PM 77.0 °F - 68.0 °F 74% 29.98 in 10.0 mi ENE 12.7 mph 18.4 mph N/A   Clear
6:35 PM 75.2 °F - 68.0 °F 78% 29.99 in 10.0 mi ENE 9.2 mph - N/A   Clear
6:55 PM 73.4 °F - 68.0 °F 83% 30.00 in 10.0 mi ENE 5.8 mph - N/A   Clear
7:15 PM 73.4 °F - 68.0 °F 83% 30.00 in 10.0 mi ENE 5.8 mph - N/A   Clear
7:35 PM 71.6 °F - 68.0 °F 88% 30.00 in 10.0 mi ENE 5.8 mph - N/A   Mostly Cloudy
7:55 PM 71.6 °F - 68.0 °F 88% 30.01 in 10.0 mi ENE 4.6 mph - N/A   Overcast
8:15 PM 71.6 °F - 68.0 °F 88% 30.01 in 10.0 mi ENE 5.8 mph - N/A   Scattered Clouds
8:35 PM 69.8 °F - 66.2 °F 88% 30.02 in 10.0 mi ENE 6.9 mph - N/A   Clear
8:55 PM 69.8 °F - 66.2 °F 88% 30.02 in 10.0 mi ENE 6.9 mph - N/A   Clear
9:15 PM 69.8 °F - 64.4 °F 83% 30.03 in 10.0 mi ENE 4.6 mph - N/A   Clear
9:35 PM 69.8 °F - 64.4 °F 83% 30.04 in 10.0 mi ENE 5.8 mph - N/A   Clear
9:55 PM 69.8 °F - 64.4 °F 83% 30.05 in 10.0 mi ENE 4.6 mph - N/A   Scattered Clouds
10:15 PM 69.8 °F - 64.4 °F 83% 30.05 in 10.0 mi ENE 5.8 mph - N/A   Overcast
10:35 PM 69.8 °F - 62.6 °F 78% 30.06 in 10.0 mi ENE 8.1 mph 16.1 mph N/A   Overcast
10:55 PM 69.8 °F - 62.6 °F 78% 30.07 in 10.0 mi ENE 8.1 mph - N/A   Overcast
11:15 PM 68.0 °F - 62.6 °F 83% 30.07 in 10.0 mi ENE 6.9 mph - N/A   Overcast
11:35 PM 68.0 °F - 62.6 °F 83% 30.08 in 10.0 mi NE 5.8 mph - N/A   Overcast
11:55 PM 68.0 °F - 62.6 °F 83% 30.08 in 10.0 mi ENE 6.9 mph - N/A   Overcast